Tracking 28790 objects as of 19-Apr-2024
HD Live streaming from Space Station
objects crossing your sky now

SOLRAD 11A

Track SOLRAD 11A now!
SOLRAD 11A is classified as:


NORAD ID: 8748
Int'l Code: 1976-023C
Perigee: 117,143.4 km
Apogee: 119,814.3 km
Inclination: 17.7 °
Period: 7,317.1 minutes
Semi major axis: 124849 km
RCS: Unknown
Launch date: March 15, 1976
Source: United States (US)
Launch site: AIR FORCE EASTERN TEST RANGE (AFETR)
Your satellite tracking list
Your tracking list is empty




NASA's NSSDC Master Catalog

Two Line Element Set (TLE):
1 08748U 76023C   24111.83820234 -.00000914  00000-0  00000-0 0  9999
2 08748  17.7074 337.0939 0106964 163.6251 357.9553  0.19679812  3912
Source of the keplerian elements: AFSPC